Etusivu
METAR-TAF:

METAR-TAF

Lentoasemat :

Show Low, Arizona, Yhdysvallat

Leveyspiiri: 34-16N, Pituuspiiri: 110-00W, korkeus merenpinnasta: 1954 m

Tämänhetkinen sää

Tämä raportti tehtiin 10 minuuttia sitten, kello 19.15 UTC
Tuuli 5 kn luoteesta
Lämpötila 7°C
Kosteus 26%
Ilmanpaine 1025 hPa
Näkyvyys: 16.1 km
Pilvistä 11000 ft:n korkeudessa

METAR: KSOW 151915Z AUTO 32005KT 10SM OVC110 07/M11 A3027 RMK AO2

Aika: 12:25 (19:25 UTC)


TAF: puuttuu

Säähavainnot ja -ennusteet yli 4000 lentoasemalta (METAR- ja TAF-raportit).

Käytössä olevat sääasemat on merkitty karttaan keltaisilla ja punaisilla pisteillä.

Aseta hiiri pisteen päälle nähdäksesi sääaseman nimen.

Klikkaa sitten nähdäksesi säähavainnot ja -ennusteet.

Kartan vaihtaminen: klikkaa mustalla rastilla varustettuja vihreitä pisteitä, niin voit zoomata sisään; viivalla varustettua vihreää pistettä, niin voit zoomata ulos tai vihreitä nuolia, niin pääset viereisille kartoille.


METAR-TAF: